Location: Lawrence Hall of Science
(37.8785°N, 122.2415°W)
Time: 20:45:19
(UTC-07:00)

Cosmos 1461 - Visible Passes

Search period start: 26 May 2015 00:00
Search period end: 05 June 2015 00:00
Orbit: 513 x 673 km, 65.0° (Epoch: 25 May)

Date Brightness Start Highest point End Pass type
(mag) Time Alt. Az. Time Alt. Az. Time Alt. Az.
26 May 4.4 01:10:42 10° NNW 01:13:55 40° N 01:13:55 40° N visible
26 May 5.6 23:41:59 10° N 23:44:31 15° NE 23:45:47 13° ENE visible
27 May 4.6 01:19:43 10° NNW 01:22:21 33° NW 01:22:21 33° NW visible
27 May 5.0 23:50:13 10° N 23:53:54 23° NE 23:54:17 22° NE visible
28 May 5.1 01:28:56 10° NW 01:30:50 23° NW 01:30:50 23° NW visible
28 May 4.4 23:58:49 10° NNW 00:02:49 35° NE 00:02:49 35° NE visible
29 May 5.6 01:38:28 10° WNW 01:39:23 14° WNW 01:39:23 14° WNW visible
30 May 4.0 00:07:38 10° NNW 00:11:24 50° N 00:11:24 50° N visible
30 May 5.4 22:38:50 10° N 22:41:27 15° NE 22:43:27 12° ENE visible
31 May 4.1 00:16:37 10° NNW 00:20:02 47° NW 00:20:02 47° NW visible
31 May 4.8 22:47:05 10° N 22:50:49 23° NE 22:52:07 21° ENE visible
01 Jun 4.6 00:25:51 10° NW 00:28:42 31° WNW 00:28:42 31° WNW visible
01 Jun 4.1 22:55:40 10° NNW 23:00:04 37° NE 23:00:50 35° ENE visible
02 Jun 5.2 00:35:22 10° WNW 00:37:24 20° WNW 00:37:24 20° WNW visible
02 Jun 3.3 23:04:28 10° NNW 23:09:12 63° ENE 23:09:34 60° E visible
03 Jun 5.8 00:45:35 10° WNW 00:46:10 11° W 00:46:10 11° W visible
03 Jun 5.4 21:35:37 10° N 21:38:19 15° NE 21:41:11 10° E visible
03 Jun 3.1 23:13:28 10° NW 23:18:13 75° WSW 23:18:22 74° SW visible
04 Jun 4.8 21:43:52 10° N 21:47:39 24° NE 21:50:36 14° E visible
04 Jun 3.9 23:22:41 10° NW 23:27:11 42° WSW 23:27:12 42° WSW visible
